Weather History for La Mesa, Honduras

Change the Weather History Date:

Sunday, February 24, 2013

  Actual Average Record
Temperature  
Mean Temperature 80 °F -  
Max Temperature 92 °F 86 °F 96 °F (2004)
Min Temperature 69 °F 69 °F 62 °F (2002)
Cooling Degree Days 16    
Growing Degree Days 30 (Base 50)    
Moisture  
Dew Point 73 °F    
Average Humidity 82    
Maximum Humidity 100    
Minimum Humidity 43    
Precipitation  
Precipitation 0.00 in 0.05 in - ()
Sea Level Pressure  
Sea Level Pressure 29.82 in    
Wind  
Wind Speed 3 mph ()    
Max Wind Speed 13 mph    
Max Gust Speed -    
Visibility 6.2 miles    
Events      
Averages and records for this station are not official NWS values.
T = Trace of Precipitation, MM = Missing Value Source: Averaged Metar Reports

Daily Weather History Graph

Daily Weather History Graph

Search for Another Location

Airport:

Trip Planner

Search our weather history database for the weather conditions in past years. The results will help you decide how hot, cold, wet, or windy it might be!

Date:

Astronomy

Feb. 24, 2013 Rise Set
Actual Time 6:11 AM CST 5:58 PM CST
Civil Twilight 5:50 AM CST 6:19 PM CST
Nautical Twilight 5:24 AM CST 6:44 PM CST
Astronomical Twilight 4:59 AM CST 7:09 PM CST
Moon 5:08 PM CST (2/24) 5:05 AM CST (2/24)
Length of Visible Light 12h 29m
Length of Day
11h 46m
Waxing Gibbous, 99% of the Moon is Illuminated
Feb 24
Waxing Gibbous
Feb 25
Full
Mar 4
Last Quarter
Mar 11
New
Mar 19
First Quarter

Hourly Weather History & Observations

Time (CST) Temp. Heat Index Dew Point Humidity Pressure Visibility Wind Dir Wind Speed Gust Speed Precip Events Conditions
12:00 AM 72 °F - 71 °F 97% 29.86 in 6 mi Calm Calm - -   Haze
12:00 AM 71.6 °F - 71.6 °F 100% 29.86 in - Calm Calm - N/A   Clear
1:00 AM 71.6 °F - 71.6 °F 100% 29.83 in 6.2 mi Calm Calm - N/A   Clear
2:00 AM 71.6 °F - 69.8 °F 94% 29.80 in 6.2 mi Calm Calm - N/A   Clear
3:00 AM 71 °F - 71 °F 100%  in 6 mi Calm Calm - -  
3:00 AM 71.6 °F - 71.6 °F 100% 29.83 in 6.2 mi Calm Calm - N/A   Clear
4:00 AM 71.6 °F - 69.8 °F 94% 29.83 in 6.2 mi Calm Calm - N/A   Clear
5:00 AM 69.8 °F - 69.8 °F 100% 29.83 in 6.2 mi SW 4.6 mph - N/A   Clear
6:00 AM 70 °F - 70 °F 100% 29.85 in 6 mi SSW 3.5 mph - -   Haze
6:00 AM 69.8 °F - 69.8 °F 100% 29.83 in 6.2 mi SSW 3.5 mph - N/A   Partly Cloudy
7:00 AM 69.8 °F - 69.8 °F 100% 29.86 in 6.2 mi SW 4.6 mph - N/A   Partly Cloudy
8:00 AM 75.2 °F - 73.4 °F 94% 29.89 in 6.2 mi Calm Calm - N/A   Partly Cloudy
9:00 AM 80.6 °F 85.4 °F 73.4 °F 79% 29.89 in - Calm Calm - N/A   Clear
10:00 AM 86.0 °F 91.8 °F 71.6 °F 62% 29.89 in 6.2 mi SSE 5.8 mph - N/A   Clear
11:00 AM 89.6 °F 96.2 °F 71.6 °F 55% 29.86 in 6.2 mi SW 4.6 mph - N/A   Partly Cloudy
12:00 PM 91 °F - 71 °F 43% 29.83 in 6 mi East 4.6 mph - -   Haze
12:00 PM 91.4 °F 96.8 °F 69.8 °F 49% 29.83 in 6.2 mi East 4.6 mph - N/A   Partly Cloudy
1:00 PM 91.4 °F 100.1 °F 73.4 °F 55% 29.80 in 6.2 mi NNE 5.8 mph - N/A   Partly Cloudy
2:00 PM 93.2 °F 102.4 °F 73.4 °F 52% 29.77 in 6.2 mi NNE 5.8 mph - N/A   Partly Cloudy
4:00 PM 91.4 °F 98.4 °F 71.6 °F 52% 29.71 in 6.2 mi North 10.4 mph - N/A   Partly Cloudy
5:00 PM 87.8 °F 95.6 °F 73.4 °F 62% 29.71 in 6.2 mi North 11.5 mph - N/A   Partly Cloudy
6:00 PM 85 °F - 77 °F 71% 29.74 in 6 mi North 12.7 mph - -   Haze
6:00 PM 84.2 °F 94.1 °F 77.0 °F 79% 29.74 in 6.2 mi North 12.7 mph - N/A   Partly Cloudy
7:00 PM 82.4 °F 90.9 °F 77.0 °F 84% 29.77 in 6.2 mi North 6.9 mph - N/A   Partly Cloudy
8:00 PM 80.6 °F 87.1 °F 77.0 °F 89% 29.77 in 6.2 mi North 5.8 mph - N/A   Partly Cloudy
9:00 PM 78.8 °F - 77.0 °F 94% 29.83 in 6.2 mi NNW 4.6 mph - N/A   Partly Cloudy
10:00 PM 77.0 °F - 77.0 °F 100% 29.83 in 6.2 mi NW 4.6 mph - N/A   Partly Cloudy
11:00 PM 77.0 °F - 77.0 °F 100% 29.83 in 6.2 mi Calm Calm - N/A   Partly Cloudy